Temp
19 16 17 17 18 19 19 17 17 18 19 16 14 12 11 12 14 12 12 13 13 14 14 16 17 16 15 14 15 12 12 12 11 12 12 12 12 11 11 11 11 11 10 10
16 17 19 17 17 18 17 17 18 18 17 15 14 12 12 12 12 11 11 11 12 12 13 13 14 14 13 14 14 14 13 12 12 12 12 11 11 11 11 11 10 10 10 10
16 19 19 17 16 17 16 17 17 18 16 15 15 13 12 13 12 12 11 12 13 13 13 13 14 14 14 13 13 13 13 13 12 12 12 12 11 11 11 11 10 9 9 8
17 17 17 17 17 16 17 18 18 18 15 14 15 11 15 13 11 11 11 12 12 12 14 14 13 13 13 13 13 13 13 12 12 12 12 12 11 11 10 10 9 8 7 7
17 17 17 17 18 18 17 17 17 17 14 14 15 11 13 12 12 11 11 12 12 13 14 13 13 13 13 13 12 12 11 11 11 11 10 10 10 9 9 8 7 6 6 6
17 18 18 18 18 18 18 16 14 12 12 11 15 12 11 11 12 11 12 12 13 14 13 13 13 12 12 11 11 11 11 11 10 10 10 9 8 8 7 6 6 6 6 5
16 16 16 18 18 17 15 13 10 11 10 11 13 13 12 13 13 12 12 12 13 13 12 12 12 12 12 11 11 11 10 10 10 9 8 8 7 7 6 6 5 4 4 4
13 14 16 16 17 17 15 14 9 15 11 11 13 12 12 13 14 14 13 12 11 11 12 12 12 12 11 10 10 10 10 9 9 8 8 7 6 6 5 5 4 4 4 3
14 15 17 17 17 16 16 13 13 9 8 8 10 13 13 12 12 13 13 13 13 12 12 12 11 11 11 11 10 9 8 8 7 6 6 6 5 5 5 4 4 3 3 2
15 15 16 17 17 16 15 14 12 8 11 12 11 12 11 12 12 12 10 10 10 10 10 10 11 11 10 9 9 9 8 7 7 6 5 5 5 4 4 4 3 3 2 1
15 13 14 15 15 15 14 13 11 10 7 8 8 10 11 11 11 9 8 9 9 9 9 9 9 8 9 9 8 7 6 6 6 6 5 5 4 3 3 3 2 2 1 0
13 10 9 15 14 15 15 14 11 7 11 5 5 9 11 11 10 10 10 10 10 9 8 8 8 9 8 7 6 6 6 6 6 5 5 5 4 3 3 2 1 0 0 0
13 11 9 12 12 13 15 14 9 8 6 9 5 8 11 11 10 10 9 8 8 8 8 8 8 7 7 6 6 6 6 5 5 5 4 4 3 3 2 1 1 -0 -0 -1
12 10 10 10 12 12 14 14 11 10 6 8 7 11 11 8 8 8 8 8 8 7 7 7 7 7 6 6 6 5 5 5 4 4 4 3 3 2 1 1 0 -0 -1 -2
10 11 11 10 10 12 13 13 11 11 10 9 10 9 11 8 7 7 8 7 7 7 7 7 7 6 6 6 5 5 5 4 4 3 3 2 1 1 0 -0 -0 -1 -3 -3
8 8 10 11 9 9 11 11 9 9 10 9 10 9 8 8 8 8 8 7 7 7 7 6 6 6 6 5 5 4 4 3 3 3 2 1 1 0 -0 -1 -2 -2 -3 -3
8 5 6 7 6 7 7 8 10 11 11 11 8 9 7 6 7 7 7 7 7 7 6 6 6 5 5 4 4 4 3 3 2 1 1 0 -0 -1 -1 -2 -3 -3 -4 -4
6 3 1 4 3 6 10 10 11 11 10 9 8 7 7 8 8 8 7 7 7 6 6 6 5 5 4 4 3 3 3 2 1 1 -0 -1 -1 -2 -2 -3 -4 -3 -4 -5
7 2 2 3 4 7 11 10 9 10 9 7 7 6 8 7 6 6 7 7 6 6 5 5 5 4 4 3 3 2 2 1 1 0 -1 -1 -2 -3 -4 -4 -4 -4 -4 -4
5 2 3 2 3 5 9 10 12 11 7 8 8 6 6 5 2 3 7 6 5 5 5 5 4 4 3 2 2 1 1 0 -0 -1 -2 -2 -3 -4 -4 -5 -5 -5 -5 -5
3 -0 2 -3 1 4 7 10 12 9 7 8 9 8 6 4 6 8 6 6 5 5 5 4 4 3 2 2 1 0 -0 -1 -1 -2 -2 -3 -4 -4 -5 -5 -5 -5 -5 -5
4 4 2 2 1 6 9 9 8 9 11 12 10 10 8 7 7 6 5 5 5 4 4 3 3 2 1 1 0 -0 -1 -2 -2 -3 -3 -4 -4 -4 -5 -5 -5 -5 -6 -6
6 6 5 5 6 9 10 11 12 13 13 11 11 9 8 7 6 5 5 5 4 4 3 3 2 1 1 0 -1 -1 -2 -2 -3 -3 -4 -4 -5 -5 -5 -5 -6 -6 -6 -7
7 8 4 6 9 8 11 11 11 11 11 11 10 8 7 6 5 4 4 4 4 3 2 2 1 1 0 -0 -1 -2 -2 -3 -3 -4 -5 -5 -5 -5 -6 -6 -6 -7 -7 -7
7 7 7 4 7 9 11 11 11 11 10 9 8 7 7 6 4 4 4 3 3 2 2 1 1 -0 -0 -1 -1 -2 -3 -3 -5 -5 -5 -5 -6 -6 -6 -7 -8 -8 -8 -8
8 7 4 7 11 10 11 12 11 11 9 8 7 5 5 4 4 4 3 3 2 1 1 0 -0 -1 -1 -2 -2 -2 -3 -4 -6 -6 -6 -6 -6 -7 -7 -7 -8 -8 -9 -9
Height
1496 1505 1513 1509 1506 1507 1509 1518 1522 1518 1512 1518 1529 1532 1530 1525 1524 1529 1531 1531 1532 1533 1534 1535 1536 1538 1541 1545 1551 1554 1557 1558 1560 1559 1558 1558 1559 1560 1560 1561 1560 1559 1557 1556
1505 1512 1506 1505 1505 1508 1513 1520 1520 1514 1514 1521 1531 1539 1536 1534 1534 1533 1532 1535 1537 1538 1539 1539 1540 1542 1545 1549 1553 1554 1555 1558 1560 1560 1560 1561 1562 1562 1561 1560 1559 1558 1556 1554
1511 1508 1503 1506 1512 1515 1521 1522 1520 1519 1521 1525 1529 1545 1544 1542 1539 1539 1541 1542 1543 1543 1544 1545 1546 1546 1549 1552 1554 1556 1558 1560 1561 1561 1562 1562 1562 1560 1560 1559 1557 1553 1550 1548
1511 1507 1508 1513 1517 1518 1523 1517 1517 1519 1530 1546 1531 1567 1547 1548 1548 1547 1546 1545 1545 1546 1546 1548 1549 1550 1551 1554 1557 1559 1560 1560 1561 1562 1562 1562 1561 1559 1556 1554 1552 1549 1547 1544
1517 1514 1515 1518 1518 1516 1522 1518 1521 1523 1534 1538 1538 1557 1552 1551 1553 1549 1548 1547 1547 1546 1547 1549 1552 1553 1555 1557 1558 1558 1558 1559 1560 1560 1559 1557 1555 1554 1552 1549 1547 1545 1543 1541
1513 1513 1514 1516 1515 1515 1516 1522 1529 1535 1541 1560 1538 1550 1557 1552 1546 1548 1548 1548 1549 1549 1550 1551 1552 1553 1553 1555 1557 1558 1557 1557 1557 1556 1555 1554 1553 1552 1551 1549 1547 1545 1541 1537
1519 1519 1515 1514 1517 1516 1520 1531 1560 1561 1566 1562 1540 1546 1547 1540 1540 1545 1546 1547 1548 1550 1551 1552 1553 1554 1552 1555 1557 1558 1558 1556 1554 1553 1552 1552 1550 1549 1547 1545 1543 1539 1536 1532
1534 1539 1521 1517 1519 1522 1524 1530 1557 1547 1567 1561 1542 1551 1544 1536 1539 1544 1545 1548 1549 1551 1551 1551 1552 1552 1552 1556 1556 1557 1555 1554 1553 1551 1550 1549 1547 1545 1542 1539 1536 1533 1530 1527
1531 1531 1519 1518 1518 1520 1523 1538 1531 1555 1566 1569 1558 1545 1541 1540 1542 1544 1545 1545 1546 1548 1548 1549 1550 1551 1553 1555 1555 1554 1552 1551 1549 1547 1546 1544 1541 1539 1536 1534 1531 1528 1525 1522
1520 1533 1522 1519 1519 1519 1521 1526 1545 1556 1563 1559 1557 1550 1552 1544 1542 1540 1541 1541 1544 1546 1548 1549 1550 1552 1553 1553 1552 1551 1549 1548 1547 1546 1544 1542 1539 1536 1534 1531 1527 1524 1521 1518
1517 1527 1533 1524 1528 1529 1530 1533 1540 1548 1563 1570 1577 1556 1535 1535 1536 1539 1541 1541 1545 1547 1549 1550 1550 1551 1551 1551 1550 1549 1547 1546 1544 1543 1541 1539 1536 1533 1530 1526 1523 1520 1517 1514
1520 1532 1547 1532 1526 1524 1524 1529 1537 1563 1555 1573 1575 1557 1531 1530 1533 1536 1539 1542 1544 1545 1547 1549 1549 1549 1550 1549 1548 1546 1545 1544 1542 1540 1538 1535 1532 1529 1524 1521 1518 1516 1513 1509
1520 1534 1555 1545 1536 1527 1527 1530 1539 1547 1558 1558 1579 1558 1533 1534 1537 1538 1537 1540 1543 1545 1547 1547 1547 1548 1548 1547 1546 1543 1542 1541 1539 1537 1534 1531 1527 1523 1520 1517 1515 1511 1507 1504
1519 1530 1536 1548 1536 1533 1533 1531 1537 1542 1565 1556 1556 1539 1536 1538 1538 1539 1540 1541 1543 1545 1546 1546 1546 1546 1545 1544 1541 1540 1539 1537 1535 1532 1529 1526 1523 1520 1517 1513 1509 1505 1501 1498
1521 1533 1532 1536 1535 1532 1531 1532 1537 1540 1541 1548 1540 1540 1532 1534 1534 1536 1538 1541 1542 1543 1543 1543 1542 1542 1540 1540 1539 1538 1536 1533 1531 1528 1525 1522 1519 1516 1512 1508 1503 1499 1495 1492
1525 1540 1534 1538 1539 1539 1535 1533 1536 1537 1535 1537 1535 1536 1530 1531 1535 1537 1538 1539 1540 1541 1541 1541 1539 1539 1538 1538 1537 1535 1533 1530 1527 1524 1522 1519 1515 1511 1507 1502 1496 1493 1489 1487
1530 1540 1548 1550 1549 1543 1550 1531 1529 1525 1525 1526 1538 1528 1528 1532 1532 1534 1536 1537 1538 1538 1539 1538 1537 1537 1536 1535 1533 1531 1529 1526 1523 1520 1517 1514 1510 1506 1502 1495 1491 1488 1484 1482
1533 1545 1558 1561 1558 1564 1523 1519 1519 1521 1521 1522 1524 1523 1523 1526 1530 1532 1534 1535 1535 1536 1536 1535 1535 1534 1533 1531 1530 1527 1525 1522 1519 1516 1513 1509 1506 1501 1496 1491 1487 1484 1481 1481
1525 1542 1559 1565 1561 1539 1518 1517 1519 1520 1521 1518 1521 1523 1526 1528 1530 1531 1531 1532 1533 1533 1533 1532 1532 1531 1530 1528 1526 1523 1521 1518 1515 1512 1509 1505 1500 1495 1491 1487 1484 1482 1480 1479
1532 1535 1548 1565 1565 1559 1519 1512 1512 1513 1529 1512 1516 1520 1523 1527 1536 1525 1526 1528 1529 1530 1530 1529 1529 1528 1527 1525 1522 1519 1517 1514 1512 1508 1504 1500 1494 1490 1486 1483 1481 1479 1478 1476
1544 1553 1555 1578 1567 1537 1512 1510 1512 1528 1523 1507 1511 1514 1519 1521 1518 1520 1522 1525 1527 1528 1527 1526 1525 1524 1522 1520 1517 1514 1512 1509 1506 1503 1499 1494 1490 1486 1482 1480 1478 1477 1476 1474
1535 1542 1550 1555 1563 1535 1504 1510 1516 1505 1501 1503 1506 1508 1510 1513 1516 1518 1519 1520 1523 1524 1524 1523 1522 1520 1518 1515 1513 1510 1507 1504 1501 1498 1494 1490 1486 1482 1479 1477 1476 1475 1473 1472
1528 1518 1525 1525 1518 1501 1499 1496 1497 1497 1498 1500 1502 1504 1507 1511 1512 1515 1517 1518 1519 1520 1520 1519 1518 1515 1513 1511 1508 1505 1502 1499 1496 1493 1490 1486 1482 1478 1477 1475 1473 1472 1470 1468
1511 1509 1516 1512 1498 1497 1498 1497 1495 1496 1496 1496 1498 1501 1505 1508 1511 1512 1516 1516 1517 1517 1517 1516 1514 1511 1509 1506 1503 1500 1497 1493 1489 1487 1485 1482 1478 1475 1473 1471 1470 1469 1467 1465
1506 1507 1504 1506 1497 1494 1493 1491 1492 1492 1492 1493 1495 1498 1501 1504 1506 1509 1512 1514 1514 1514 1513 1512 1509 1507 1504 1501 1499 1496 1492 1488 1485 1482 1480 1478 1474 1472 1470 1468 1468 1466 1463 1461
1498 1496 1503 1497 1488 1488 1487 1487 1488 1488 1488 1490 1493 1497 1499 1502 1506 1507 1509 1510 1510 1509 1508 1506 1504 1502 1499 1497 1493 1490 1486 1483 1480 1477 1475 1472 1470 1468 1467 1466 1464 1462 1459 1457
Wind_Speed
6 6 2 4 2 3 2 2 3 2 2 6 6 8 9 11 23 24 23 26 23 18 15 15 14 14 18 25 25 15 5 12 6 8 8 7 5 2 1 5 8 12 14 17
7 3 0 8 6 6 6 6 1 2 7 8 9 11 10 15 11 19 26 28 32 31 29 24 20 17 16 10 5 7 5 10 7 6 5 1 9 9 11 14 16 18 22 26
5 2 5 7 7 7 4 3 3 4 5 7 7 7 8 7 16 21 24 28 28 27 25 19 14 12 14 15 13 9 9 6 4 4 5 4 7 11 17 19 21 21 20 18
6 6 5 6 5 3 3 1 2 3 4 4 3 2 3 3 6 8 18 24 25 23 21 20 20 19 18 15 12 9 8 7 5 5 6 8 11 14 15 17 18 18 18 21
2 3 5 6 1 2 3 2 3 1 3 4 3 5 3 5 3 3 11 23 23 22 20 19 18 16 13 11 9 6 4 1 2 5 9 12 13 14 15 15 13 16 20 26
3 2 3 2 1 1 2 4 6 4 3 2 1 5 4 6 7 5 12 20 22 20 19 18 16 15 14 10 5 3 1 3 7 10 10 11 11 11 9 12 18 25 27 29
5 4 5 3 2 3 5 5 2 3 3 4 5 3 5 8 11 8 15 22 20 20 19 17 15 13 12 8 4 4 3 7 9 8 9 11 12 13 16 20 22 24 25 28
4 3 4 5 2 2 3 4 4 5 3 3 5 2 4 3 20 24 21 14 13 12 12 12 11 9 7 7 4 2 6 10 11 13 13 13 14 16 23 26 28 29 28 26
4 1 3 1 2 3 1 4 3 6 3 3 2 2 5 4 7 16 18 17 15 14 13 12 12 11 8 3 2 7 10 12 13 12 12 19 21 24 26 25 28 26 26 23
5 4 1 3 2 5 5 4 3 4 2 1 2 3 4 7 11 6 9 20 23 21 19 18 13 9 4 2 8 12 12 12 11 13 15 18 20 21 22 25 26 25 23 19
3 3 4 2 3 1 4 2 6 5 3 4 1 5 5 9 8 8 14 26 25 21 18 14 10 5 3 7 8 7 7 8 11 13 14 16 15 17 20 23 22 23 21 28
2 5 3 1 5 3 1 3 4 4 2 1 3 5 3 6 15 23 24 24 22 19 16 10 5 1 2 2 4 7 10 13 13 15 19 20 18 24 27 21 21 25 29 28
2 2 3 6 6 5 3 3 5 5 3 4 4 5 2 6 9 13 23 23 22 17 11 6 1 1 1 3 6 9 11 12 15 18 17 19 26 31 26 23 25 27 27 28
3 3 5 6 4 3 3 2 4 5 3 3 6 3 5 4 7 17 21 23 17 12 7 1 1 1 2 3 7 8 12 15 15 18 22 28 29 26 26 26 30 32 24 27
4 3 2 3 4 2 1 3 5 6 5 5 5 7 5 10 9 20 23 17 12 7 2 2 2 2 4 6 8 10 13 14 20 24 27 26 27 27 28 31 35 25 21 23
4 1 1 1 4 5 3 5 7 6 4 7 5 5 3 11 14 19 20 15 9 5 3 2 2 5 8 7 9 10 15 19 24 28 25 22 23 27 29 34 30 21 18 20
3 4 3 3 4 4 6 8 8 5 4 6 6 8 11 6 16 23 18 13 9 6 4 3 5 6 7 6 10 15 19 23 24 21 18 20 24 28 33 32 24 21 20 12
5 4 2 2 3 2 6 3 4 6 4 3 2 7 15 15 16 14 12 11 8 7 5 6 6 7 7 10 13 17 22 22 19 16 19 24 29 33 32 26 19 15 8 9
3 5 3 4 3 5 4 5 7 7 7 7 6 7 12 11 9 10 14 10 9 8 8 7 6 8 10 12 17 22 21 21 17 21 26 29 32 31 25 18 15 8 8 11
5 6 4 2 4 6 6 3 8 6 5 15 16 15 15 16 3 5 20 13 12 10 8 7 7 9 13 16 20 19 17 19 23 27 27 29 27 23 22 15 12 10 10 8
2 3 5 2 4 8 6 6 8 5 7 21 24 27 23 10 13 5 15 12 11 9 8 6 8 11 15 18 17 18 21 24 25 26 27 25 22 23 18 14 13 12 10 10
7 6 4 3 1 8 12 5 8 6 8 20 25 26 31 27 11 12 13 13 10 10 7 8 12 15 17 19 20 21 22 23 25 26 24 23 22 21 14 11 9 9 10 11
3 7 5 9 6 4 20 9 22 9 10 22 23 26 23 19 14 13 14 12 11 8 7 10 15 18 19 20 19 21 23 24 26 26 21 21 21 16 13 13 13 12 10 11
4 7 2 2 6 14 14 26 16 16 20 15 21 21 19 15 14 14 15 11 8 7 9 14 17 20 20 20 21 21 23 26 27 20 17 20 19 16 15 14 12 11 11 13
4 8 5 5 10 11 14 19 24 24 19 15 17 19 18 15 16 17 14 9 6 8 13 17 20 20 21 22 21 23 25 24 23 18 18 21 17 14 13 10 10 13 15 16
9 7 4 7 14 10 10 10 14 18 20 19 19 17 15 15 18 14 8 4 9 12 16 18 19 21 21 22 24 25 26 22 21 21 20 20 16 12 12 12 13 14 17 15
Wind_Direction
24 64 71 55 105 171 105 101 167 272 20 80 51 32 12 38 122 115 113 116 114 120 134 153 173 175 191 197 210 191 231 210 191 227 208 193 171 124 266 260 278 281 287 302
25 83 220 90 57 76 77 117 105 99 35 84 65 33 32 43 80 109 113 109 110 105 103 107 113 128 141 149 154 109 105 170 207 236 159 3 314 300 300 299 300 302 308 312
124 309 62 82 43 74 35 85 14 116 55 37 93 38 14 26 82 104 113 118 117 116 112 110 113 114 110 105 105 110 103 117 175 245 284 320 313 314 321 316 304 297 297 299
72 339 89 71 81 92 63 325 54 45 89 178 82 144 23 8 54 91 126 128 126 124 119 123 123 116 112 108 108 96 66 53 39 10 334 311 303 306 301 291 286 284 290 297
221 81 73 65 82 110 183 141 128 108 83 88 34 91 231 121 128 157 146 143 144 138 125 127 122 110 97 94 100 103 111 88 274 282 298 308 304 296 289 277 280 287 304 317
102 129 79 187 1 121 115 94 42 50 83 58 278 130 228 195 189 173 178 160 153 142 140 132 125 119 116 112 123 146 194 286 306 311 301 294 292 295 289 300 311 316 315 325
14 357 332 43 87 11 71 73 11 10 11 206 328 73 224 218 167 178 174 174 167 160 149 140 140 141 131 145 182 222 267 310 323 321 312 312 316 322 327 328 329 322 323 330
117 358 4 337 98 193 52 135 148 190 188 239 359 353 277 176 150 170 172 161 168 167 151 145 144 140 134 133 125 320 328 322 319 318 316 320 328 329 333 334 333 334 324 320
129 347 323 313 358 134 156 50 151 106 13 70 265 12 15 97 119 158 156 150 147 152 152 156 149 139 135 142 327 336 333 329 331 344 355 345 341 337 336 333 328 325 311 301
183 101 358 307 56 26 113 141 52 9 118 187 271 222 207 208 188 184 152 141 133 136 141 142 141 145 157 314 334 333 337 343 353 349 342 340 334 327 320 318 319 316 302 289
106 96 275 22 19 221 2 39 62 107 111 155 175 259 217 196 189 159 140 142 143 145 146 142 142 123 23 329 336 354 352 345 343 335 328 321 308 308 322 328 319 309 298 306
36 121 96 207 292 293 163 124 113 106 209 36 142 275 328 178 161 148 150 154 159 160 151 141 143 183 297 333 339 346 337 333 320 318 318 317 313 331 338 332 317 314 317 311
146 36 69 354 351 351 104 62 92 105 90 197 132 263 73 89 135 168 156 159 155 152 151 151 139 14 0 340 339 330 324 315 319 319 321 327 331 335 340 338 327 328 315 305
121 98 149 183 201 175 152 118 106 113 123 193 225 216 199 179 158 150 159 159 159 159 159 160 203 237 336 328 325 309 310 315 318 319 325 328 333 337 333 331 330 328 310 304
87 114 88 53 23 52 147 177 173 191 189 174 252 215 223 195 178 167 165 165 168 173 213 291 307 324 324 308 300 307 314 316 319 324 328 332 334 336 332 328 329 322 304 297
16 159 89 103 5 8 279 250 242 233 221 255 249 245 222 162 165 169 175 179 186 204 253 226 291 293 301 293 296 305 314 323 326 329 330 328 329 328 326 329 333 320 312 304
78 117 90 254 346 338 333 218 193 198 198 176 187 220 166 174 176 180 185 193 201 221 215 244 268 275 288 286 307 315 323 327 328 319 314 321 327 327 328 332 327 316 311 286
115 91 72 180 21 7 244 312 230 197 214 195 126 175 179 179 185 194 197 204 223 222 230 241 246 280 286 304 312 320 327 329 317 306 320 328 325 325 328 328 325 319 317 303
78 118 99 139 198 300 282 206 164 171 252 194 175 161 180 178 173 214 208 221 225 216 234 233 266 295 308 313 318 325 328 329 324 323 326 325 324 324 326 318 320 301 310 307
57 71 108 125 150 218 240 247 145 98 298 191 177 176 170 159 173 236 211 208 210 221 224 253 287 307 310 315 322 325 326 327 325 324 324 324 325 323 323 308 305 316 309 294
44 15 160 144 229 286 233 184 130 114 235 178 193 195 180 193 205 219 186 205 203 221 236 257 293 306 315 321 321 321 323 323 322 321 325 329 324 322 313 307 306 304 294 285
171 156 198 102 58 276 179 122 168 204 185 185 198 206 203 209 206 190 185 189 200 209 241 283 302 313 319 319 317 317 319 320 319 321 322 325 322 321 312 310 310 306 301 289
240 190 184 186 214 253 192 223 214 211 217 205 214 212 208 203 201 185 191 198 206 234 273 301 311 316 317 317 319 317 316 316 319 319 308 319 322 316 300 298 300 301 288 299
245 176 212 93 254 240 239 228 246 240 238 238 220 202 197 196 180 202 206 203 221 264 298 311 315 315 318 318 315 311 312 315 316 317 297 312 316 315 304 298 292 281 288 305
203 152 207 257 278 273 262 249 249 250 237 222 195 196 190 201 211 198 197 213 256 299 311 313 315 315 314 314 312 313 314 316 317 321 299 303 302 312 312 308 289 288 297 305
192 198 168 236 249 234 249 253 257 241 225 200 186 184 196 195 190 184 192 252 304 310 312 312 311 309 313 314 313 315 314 313 315 313 304 298 289 297 298 305 307 302 301 300